Overview Statistics Trail Chart Weather Telemetry Raw packets
 

This is the latest recevied weather packets stored in our database for station/object KB1JL-13. If no packets are shown the sender has not sent any weather packets the latest 10 day(s).

<< 8 9 10 11 12 13 14 >>
Time Temp. Humidity Pressure Rain* Wind** Luminosity Snow
1788548499 27.78° C 64% 1022.2 hPa 0 mm - 517 W/m² -
1788548196 27.78° C 59% 1022.6 hPa 0 mm - 537 W/m² -
1788547907 27.22° C 62% 1022.2 hPa 0 mm - 576 W/m² -
1788547589 27.78° C 63% 1022.2 hPa 0 mm - 598 W/m² -
1788547285 27.78° C 60% 1022.6 hPa 0 mm - 117 W/m² -
1788546980 27.78° C 62% 1022.2 hPa 0 mm - 587 W/m² -
1788546675 27.22° C 61% 1022.2 hPa 0 mm - 624 W/m² -
1788546370 27.22° C 62% 1022.2 hPa 0 mm - 194 W/m² -
1788546064 27.22° C 61% 1022.6 hPa 0 mm - 661 W/m² -
1788545761 27.78° C 62% 1022.2 hPa 0 mm - 600 W/m² -
1788545461 27.78° C 61% 1022.6 hPa 0 mm - 678 W/m² -
1788545155 27.22° C 63% 1022.2 hPa 0 mm - 214 W/m² -
1788544850 27.22° C 62% 1022.2 hPa 0 mm - 505 W/m² -
1788544550 26.67° C 61% 1022.2 hPa 0 mm - 651 W/m² -
1788544248 26.11° C 63% 1022.6 hPa 0 mm - 149 W/m² -
1788543943 26.67° C 63% 1022.2 hPa 0 mm - 175 W/m² -
1788543641 26.67° C 64% 1022.2 hPa 0 mm - 631 W/m² -
1788543340 26.67° C 63% 1021.9 hPa 0 mm - 618 W/m² -
1788543036 26.67° C 62% 1022.2 hPa 0 mm - 622 W/m² -
1788542732 27.22° C 64% 1021.9 hPa 0 mm - 635 W/m² -
1788542431 26.67° C 61% 1022.2 hPa 0 mm - 587 W/m² -
1788542126 27.22° C 64% 1022.2 hPa 0 mm - 516 W/m² -
1788541822 27.78° C 63% 1022.2 hPa 0 mm - 165 W/m² -
1788541517 27.22° C 61% 1022.2 hPa 0 mm - 642 W/m² -
1788541214 26.67° C 64% 1022.2 hPa 0 mm - 596 W/m² -

* Rain latest hour (hover to see other rain measurements)
** Current wind speed in m/s (hover to see current wind gust speed)